TimeEST,TemperatureF,Dew PointF,Humidity,Sea Level PressureIn,VisibilityMPH,Wind Direction,Wind SpeedMPH,Gust SpeedMPH,PrecipitationIn,Events,Conditions,WindDirDegrees,DateUTC
12:15 AM,24.1,10.6,56,30.37,10.0,NE,8.1,-,N/A,,Clear,50,2014-03-06 05:15:00
12:35 AM,23.7,10.4,57,30.36,10.0,NE,12.7,-,N/A,,Clear,50,2014-03-06 05:35:00
12:55 AM,23.7,9.5,55,30.36,10.0,ENE,10.4,-,N/A,,Scattered Clouds,60,2014-03-06 05:55:00
1:15 AM,23.5,9.3,55,30.36,10.0,ENE,12.7,-,N/A,,Scattered Clouds,60,2014-03-06 06:15:00
1:35 AM,23.2,9.7,56,30.36,10.0,ENE,9.2,-,N/A,,Clear,60,2014-03-06 06:35:00
1:55 AM,23.2,9.7,56,30.36,10.0,ENE,12.7,-,N/A,,Clear,60,2014-03-06 06:55:00
2:15 AM,22.8,9.0,55,30.35,10.0,ENE,11.5,-,N/A,,Clear,60,2014-03-06 07:15:00
2:35 AM,22.1,9.5,58,30.34,10.0,NE,10.4,-,N/A,,Clear,50,2014-03-06 07:35:00
2:55 AM,21.7,9.3,59,30.33,10.0,NE,12.7,-,N/A,,Clear,50,2014-03-06 07:55:00
3:10 AM,21.6,9.3,59,30.33,10.0,NE,10.4,-,N/A,,Clear,40,2014-03-06 08:10:00
3:35 AM,21.2,9.3,60,30.32,10.0,NE,10.4,-,N/A,,Clear,50,2014-03-06 08:35:00
3:55 AM,21.0,9.3,61,30.32,10.0,NE,10.4,-,N/A,,Clear,40,2014-03-06 08:55:00
4:15 AM,20.8,9.1,61,30.32,10.0,NE,9.2,-,N/A,,Clear,50,2014-03-06 09:15:00
4:35 AM,20.7,9.3,62,30.32,10.0,NE,9.2,-,N/A,,Clear,50,2014-03-06 09:35:00
4:55 AM,20.7,9.5,62,30.33,10.0,NE,6.9,-,N/A,,Clear,50,2014-03-06 09:55:00
5:15 AM,20.8,9.7,62,30.33,10.0,NE,8.1,-,N/A,,Clear,50,2014-03-06 10:15:00
5:35 AM,21.0,9.5,61,30.33,10.0,NE,10.4,-,N/A,,Clear,50,2014-03-06 10:35:00
5:55 AM,21.0,9.7,62,30.33,10.0,NE,9.2,-,N/A,,Clear,50,2014-03-06 10:55:00
6:15 AM,21.0,9.9,62,30.33,10.0,NE,9.2,-,N/A,,Clear,50,2014-03-06 11:15:00
6:35 AM,20.7,10.0,64,30.33,10.0,NE,8.1,-,N/A,,Clear,50,2014-03-06 11:35:00
6:55 AM,20.5,10.2,65,30.33,10.0,NE,9.2,-,N/A,,Clear,50,2014-03-06 11:55:00
7:15 AM,20.7,10.4,65,30.34,10.0,NE,8.1,-,N/A,,Clear,50,2014-03-06 12:15:00
7:35 AM,21.0,10.4,64,30.33,10.0,ENE,10.4,-,N/A,,Clear,60,2014-03-06 12:35:00
7:50 AM,21.6,10.6,63,30.33,10.0,ENE,10.4,-,N/A,,Clear,60,2014-03-06 12:50:00
8:15 AM,22.8,10.9,60,30.31,10.0,ENE,12.7,-,N/A,,Clear,60,2014-03-06 13:15:00
8:35 AM,24.1,11.1,58,30.32,10.0,ENE,11.5,-,N/A,,Clear,70,2014-03-06 13:35:00
8:55 AM,25.5,11.8,56,30.32,10.0,ENE,10.4,-,N/A,,Clear,70,2014-03-06 13:55:00
9:15 AM,26.4,11.8,54,30.33,10.0,East,9.2,-,N/A,,Clear,80,2014-03-06 14:15:00
9:35 AM,27.7,12.2,52,30.33,10.0,ENE,8.1,-,N/A,,Clear,70,2014-03-06 14:35:00
9:55 AM,28.9,12.0,49,30.34,10.0,East,5.8,-,N/A,,Clear,100,2014-03-06 14:55:00
10:15 AM,30.0,12.4,48,30.32,10.0,ENE,5.8,-,N/A,,Clear,60,2014-03-06 15:15:00
10:35 AM,31.1,12.6,46,30.29,10.0,East,9.2,-,N/A,,Clear,90,2014-03-06 15:35:00
10:55 AM,32.0,13.5,46,30.29,10.0,ENE,10.4,-,N/A,,Clear,60,2014-03-06 15:55:00
11:15 AM,33.3,14.0,45,30.29,10.0,ENE,9.2,-,N/A,,Clear,70,2014-03-06 16:15:00
11:35 AM,34.9,15.1,44,30.28,10.0,East,8.1,-,N/A,,Clear,80,2014-03-06 16:35:00
11:55 AM,35.8,15.4,44,30.27,10.0,ENE,5.8,-,N/A,,Clear,60,2014-03-06 16:55:00
12:15 PM,36.9,15.3,41,30.26,10.0,ENE,6.9,-,N/A,,Clear,70,2014-03-06 17:15:00
12:40 PM,38.1,16.7,42,30.24,10.0,ENE,8.1,-,N/A,,Clear,70,2014-03-06 17:40:00
12:55 PM,39.4,16.5,40,30.23,10.0,East,6.9,-,N/A,,Clear,80,2014-03-06 17:55:00
1:15 PM,40.5,16.9,39,30.21,10.0,ENE,9.2,-,N/A,,Clear,60,2014-03-06 18:15:00
1:35 PM,41.5,17.2,38,30.21,10.0,ENE,6.9,-,N/A,,Clear,60,2014-03-06 18:35:00
1:55 PM,42.3,17.8,37,30.21,10.0,East,6.9,-,N/A,,Clear,80,2014-03-06 18:55:00
2:15 PM,43.3,18.1,36,30.20,10.0,East,5.8,-,N/A,,Clear,90,2014-03-06 19:15:00
2:35 PM,44.1,17.8,35,30.19,10.0,ESE,5.8,-,N/A,,Clear,110,2014-03-06 19:35:00
2:55 PM,44.6,17.8,34,30.18,10.0,NE,4.6,-,N/A,,Clear,50,2014-03-06 19:55:00
3:15 PM,44.6,18.7,36,30.18,10.0,NNE,3.5,-,N/A,,Clear,20,2014-03-06 20:15:00
3:35 PM,45.5,18.7,34,30.18,10.0,Calm,Calm,-,N/A,,Clear,0,2014-03-06 20:35:00
3:55 PM,45.5,18.0,33,30.18,10.0,NE,5.8,-,N/A,,Clear,40,2014-03-06 20:55:00
4:15 PM,45.7,18.3,34,30.17,10.0,NE,5.8,-,N/A,,Clear,50,2014-03-06 21:15:00
4:35 PM,45.9,18.7,34,30.17,10.0,ENE,5.8,-,N/A,,Clear,70,2014-03-06 21:35:00
4:55 PM,45.9,18.9,34,30.16,10.0,NE,8.1,-,N/A,,Clear,40,2014-03-06 21:55:00
5:15 PM,45.5,19.0,35,30.16,10.0,NE,6.9,-,N/A,,Clear,40,2014-03-06 22:15:00
5:35 PM,44.2,19.9,38,30.15,10.0,ENE,8.1,-,N/A,,Clear,60,2014-03-06 22:35:00
5:55 PM,42.8,20.7,41,30.15,10.0,ENE,8.1,-,N/A,,Clear,70,2014-03-06 22:55:00
6:15 PM,40.5,20.7,45,30.16,10.0,ENE,6.9,-,N/A,,Clear,60,2014-03-06 23:15:00
6:35 PM,38.8,20.1,47,30.16,10.0,ENE,6.9,-,N/A,,Clear,60,2014-03-06 23:35:00
6:55 PM,37.8,19.9,49,30.16,10.0,ENE,6.9,-,N/A,,Clear,60,2014-03-06 23:55:00
7:15 PM,37.6,19.8,49,30.16,10.0,ENE,6.9,-,N/A,,Clear,60,2014-03-07 00:15:00
7:35 PM,36.3,19.9,52,30.16,10.0,East,6.9,-,N/A,,Clear,80,2014-03-07 00:35:00
7:55 PM,36.5,20.8,53,30.15,10.0,East,6.9,-,N/A,,Clear,80,2014-03-07 00:55:00
8:15 PM,36.5,20.5,52,30.15,10.0,ENE,8.1,-,N/A,,Clear,60,2014-03-07 01:15:00
8:35 PM,34.9,20.3,55,30.15,10.0,ENE,6.9,-,N/A,,Clear,60,2014-03-07 01:35:00
8:55 PM,33.6,20.3,58,30.15,10.0,ENE,6.9,-,N/A,,Clear,70,2014-03-07 01:55:00
9:15 PM,33.8,20.3,58,30.15,10.0,ENE,6.9,-,N/A,,Clear,60,2014-03-07 02:15:00
9:35 PM,32.7,20.3,60,30.15,10.0,ENE,6.9,-,N/A,,Clear,60,2014-03-07 02:35:00
9:55 PM,32.7,20.3,60,30.14,10.0,ENE,5.8,-,N/A,,Clear,70,2014-03-07 02:55:00
10:15 PM,32.9,20.7,61,30.14,10.0,East,6.9,-,N/A,,Clear,90,2014-03-07 03:15:00
10:35 PM,32.9,20.8,61,30.13,10.0,East,6.9,-,N/A,,Clear,90,2014-03-07 03:35:00
10:55 PM,33.3,20.5,59,30.13,10.0,East,5.8,-,N/A,,Clear,90,2014-03-07 03:55:00
11:15 PM,33.4,19.9,58,30.11,10.0,East,4.6,-,N/A,,Clear,90,2014-03-07 04:15:00
11:35 PM,32.2,19.8,60,30.11,10.0,East,3.5,-,N/A,,Clear,80,2014-03-07 04:35:00
11:55 PM,31.5,19.8,62,30.10,10.0,ENE,4.6,-,N/A,,Clear,70,2014-03-07 04:55:00